Manchester, NH

2:19 AM EDT on August 27, 2016 (GMT -0400)
Manchester

Weather History for KMHT - November, 2013

Change the Weather History Date:

Tuesday, November 19, 2013

  Actual Average Record
Temperature  
Mean Temperature 39 °F 40 °F  
Max Temperature 46 °F 48 °F 70 °F (1953)
Min Temperature 30 °F 32 °F 15 °F (1951)
Degree Days  
Heating Degree Days 26    
Cooling Degree Days 0    
Moisture  
Dew Point 18 °F    
Average Humidity 44    
Maximum Humidity 51    
Minimum Humidity 35    
Precipitation  
Precipitation 0.00 in 0.14 in 1.16 in (1968)
Month to date precipitation 2.73  
Year to date precipitation 39.96  
Snow  
Snow 0.00 in - - ()
Month to date snowfall  
Since 1 July snowfall  
Snow Depth -    
Sea Level Pressure  
Sea Level Pressure 30.01 in    
Wind  
Wind Speed 13 mph (NW)    
Max Wind Speed 23 mph    
Max Gust Speed 34 mph    
Visibility 10 miles    
Events      
T = Trace of Precipitation, MM = Missing Value Source: NWS Daily Summary

Daily Weather History Graph

Daily Weather History Graph

Search for Another Location

Airport or City:

Trip Planner

Search our weather history database for the weather conditions in past years. The results will help you decide how hot, cold, wet, or windy it might be!

Date:

Astronomy

Nov. 19, 2013 Rise Set
Actual Time 6:43 AM EST 4:18 PM EST
Civil Twilight 6:12 AM EST 4:49 PM EST
Nautical Twilight 5:37 AM EST 5:24 PM EST
Astronomical Twilight 5:04 AM EST 5:57 PM EST
Moon 6:06 PM EST (11/19) 8:20 AM EST (11/19)
Length of Visible Light 10h 37m
Length of Day
9h 35m
Waning Gibbous, 96% of the Moon is Illuminated
Nov 19
Waning Gibbous
Nov 25
Last Quarter
Dec 2
New
Dec 9
First Quarter
Dec 17
Full

Hourly Weather History & Observations

Time (EST) Temp. Windchill Dew Point Humidity Pressure Visibility Wind Dir Wind Speed Gust Speed Precip Events Conditions
12:53 AM 46.9 °F - 28.0 °F 48% 29.69 in 10.0 mi West 5.8 mph - N/A   Partly Cloudy
1:53 AM 45.0 °F 39.7 °F 23.0 °F 42% 29.71 in 10.0 mi West 10.4 mph 24.2 mph N/A   Clear
2:53 AM 43.0 °F 36.8 °F 24.1 °F 47% 29.72 in 10.0 mi West 11.5 mph - N/A   Clear
3:53 AM 42.1 °F 35.2 °F 23.0 °F 47% 29.74 in 10.0 mi West 12.7 mph 23.0 mph N/A   Clear
4:53 AM 41.0 °F 36.4 °F 23.0 °F 49% 29.76 in 10.0 mi West 6.9 mph - N/A   Mostly Cloudy
5:53 AM 41.0 °F 32.5 °F 24.1 °F 51% 29.80 in 10.0 mi NNW 17.3 mph 21.9 mph N/A   Mostly Cloudy
6:53 AM 39.9 °F 30.2 °F 21.0 °F 47% 29.85 in 10.0 mi WNW 20.7 mph 26.5 mph 0.00 in   Mostly Cloudy
7:53 AM 37.9 °F 28.5 °F 19.0 °F 47% 29.90 in 10.0 mi NW 17.3 mph 28.8 mph N/A   Mostly Cloudy
8:53 AM 37.9 °F 28.9 °F 18.0 °F 45% 29.94 in 10.0 mi NW 16.1 mph 27.6 mph N/A   Mostly Cloudy
9:53 AM 37.9 °F 27.1 °F 14.0 °F 38% 29.96 in 10.0 mi NW 23.0 mph 32.2 mph N/A   Mostly Cloudy
10:53 AM 39.0 °F 31.8 °F 14.0 °F 36% 29.97 in 10.0 mi NW 11.5 mph 24.2 mph N/A   Scattered Clouds
11:53 AM 39.9 °F 31.8 °F 14.0 °F 35% 29.99 in 10.0 mi NW 15.0 mph 27.6 mph N/A   Scattered Clouds
12:53 PM 39.9 °F 30.5 °F 15.1 °F 36% 30.00 in 10.0 mi NW 19.6 mph 25.3 mph N/A   Partly Cloudy
1:53 PM 39.9 °F 30.2 °F 15.1 °F 36% 30.02 in 10.0 mi NW 20.7 mph 34.5 mph N/A   Partly Cloudy
2:53 PM 39.0 °F 29.6 °F 15.1 °F 38% 30.06 in 10.0 mi NW 18.4 mph 27.6 mph N/A   Partly Cloudy
3:53 PM 37.9 °F 29.6 °F 16.0 °F 41% 30.09 in 10.0 mi NNW 13.8 mph 20.7 mph N/A   Partly Cloudy
4:53 PM 36.0 °F 26.7 °F 16.0 °F 44% 30.14 in 10.0 mi NW 15.0 mph 20.7 mph N/A   Partly Cloudy
5:53 PM 35.1 °F 27.9 °F 16.0 °F 46% 30.17 in 10.0 mi NNW 9.2 mph 19.6 mph N/A   Clear
6:53 PM 34.0 °F 24.6 °F 16.0 °F 48% 30.21 in 10.0 mi NW 13.8 mph 23.0 mph N/A   Clear
7:53 PM 33.1 °F 24.9 °F 15.1 °F 48% 30.24 in 10.0 mi NW 10.4 mph 18.4 mph N/A   Clear
8:53 PM 33.1 °F 23.9 °F 15.1 °F 48% 30.27 in 10.0 mi NW 12.7 mph 21.9 mph N/A   Partly Cloudy
9:53 PM 32.0 °F 22.5 °F 14.0 °F 48% 30.29 in 10.0 mi NW 12.7 mph 21.9 mph N/A   Clear
10:53 PM 32.0 °F 26.4 °F 12.9 °F 45% 30.32 in 10.0 mi NNW 5.8 mph 16.1 mph N/A   Clear
11:53 PM 30.9 °F 20.2 °F 12.9 °F 47% 30.32 in 10.0 mi NW 15.0 mph 20.7 mph N/A   Clear